User: anonymous   Login
Location: Bernadets
(43.3537°N, 0.3167°E)
Time: 07:20:22
(UTC+00:00)
Language:

Okean 1-7 Rocket - Orbit

View from above orbital plane
View from above orbital plane
View from above satellite
View from above satellite

Ground track
Ground track

The orbit data is extracted from the following two-line orbital elements,

1 23318U 94066B   22019.52882371  .00000195  00000-0  23204-4 0  9992
2 23318  82.5396  52.9435 0024597 142.9599 217.3318 14.78947605470531
Epoch (UTC): 19 January 2022 12:41:30
Eccentricity: 0.0024597
inclination: 82.5396°
perigee height: 615 km
apogee height: 650 km
right ascension of ascending node: 52.9435°
argument of perigee: 142.9599°
revolutions per day: 14.78947605
mean anomaly at epoch: 217.3318°
orbit number at epoch: 47053

The dashed part of the orbit path shows where the satellite is in the earth's shadow,  

DLR